Lapse_Rate
5.8 5.4 5.4 5.4 5.9 6.7 7.6 8.1 8.6 9.1 9.5 9.2 9.4 9.2 9.0 8.8 8.2 8.2 7.6 7.3 7.5 7.0 5.4 6.4 7.0 6.9 7.0 7.0 6.9 6.9 7.0 6.9 6.8 6.6 6.4 6.4 6.2 6.1 5.9 6.0 5.9 5.9 5.8 5.8 5.9 5.9 5.8 5.7 5.7
5.7 5.6 6.0 6.1 6.6 7.5 8.1 8.8 9.1 9.6 9.2 9.2 9.0 9.1 8.7 8.6 8.5 8.0 8.3 7.9 7.3 7.0 5.9 6.1 6.8 6.9 7.1 7.3 7.1 7.1 7.0 6.9 6.5 6.5 6.6 6.4 6.2 6.1 6.0 5.9 5.8 5.8 5.8 5.9 5.9 5.8 5.7 5.7 5.7
5.8 5.7 6.3 6.5 7.6 8.0 8.6 9.4 9.6 9.4 9.2 9.1 8.8 8.4 8.1 8.1 8.3 8.1 8.1 7.5 6.6 6.5 7.3 7.1 6.9 6.0 5.3 6.9 6.8 6.8 6.8 6.7 6.6 6.7 6.5 6.4 6.2 6.0 5.9 5.8 5.8 5.7 5.8 5.9 5.8 5.8 5.8 5.8 5.8
5.7 6.2 6.4 7.1 8.3 9.0 9.0 9.4 9.2 8.5 9.3 8.8 8.3 7.8 7.3 7.4 7.6 7.9 7.8 7.4 7.3 6.7 6.7 6.6 7.3 6.5 6.4 6.8 6.6 6.5 6.7 6.6 6.5 6.7 6.5 6.1 5.9 5.9 5.8 5.8 5.7 5.6 5.8 5.7 5.8 5.8 5.9 5.7 5.7
6.0 6.4 6.8 6.6 8.3 8.6 9.2 9.4 9.4 9.1 8.2 8.4 8.6 7.7 7.5 7.5 7.9 7.8 8.0 8.1 7.5 6.4 6.6 6.1 6.0 6.1 6.2 6.3 5.8 6.1 6.4 6.3 6.7 6.6 6.4 6.1 5.9 5.7 5.7 5.6 5.7 5.6 5.8 5.9 5.9 5.9 5.9 6.0 6.0
6.4 6.3 6.7 7.2 8.7 9.3 9.4 9.1 9.1 8.8 8.1 7.2 7.4 7.3 7.4 7.7 8.1 8.0 7.9 7.5 7.3 7.0 7.1 6.1 5.1 6.1 6.2 6.0 5.5 5.5 6.2 6.6 6.6 6.4 6.0 5.8 5.5 5.7 5.6 5.6 5.6 5.6 5.8 5.9 5.8 5.9 6.0 6.0 6.0
6.4 6.9 6.9 8.0 8.9 8.9 8.7 8.5 8.6 8.1 7.7 7.0 7.2 7.1 7.1 7.5 7.7 7.8 7.4 6.9 6.8 6.9 6.1 6.1 5.1 5.7 5.7 6.2 5.5 5.5 6.2 6.2 6.1 5.9 5.7 5.5 5.4 5.3 5.5 5.6 5.7 5.8 5.6 5.7 5.8 6.0 6.0 6.0 5.8
6.3 6.6 7.6 8.6 8.9 9.0 8.7 8.0 8.1 8.1 7.5 7.6 7.4 7.8 7.5 6.7 7.1 7.2 7.2 6.9 7.2 6.9 6.1 5.3 5.0 5.5 5.6 5.6 5.2 5.3 5.9 5.8 5.9 5.8 5.6 5.4 5.5 5.3 5.2 5.2 5.4 5.7 5.6 5.6 5.7 5.9 6.1 6.0 6.1
6.6 7.1 7.7 8.5 9.0 8.9 8.8 8.2 8.0 7.6 7.5 7.2 7.0 7.1 6.9 7.4 7.1 7.0 7.0 7.2 7.0 6.8 6.5 5.3 5.1 5.8 5.8 5.3 5.0 4.2 5.4 5.3 5.2 5.4 5.5 5.4 5.1 4.9 4.8 5.2 5.2 5.2 5.5 5.7 5.9 6.2 6.1 6.1 6.0
6.4 7.6 7.9 9.0 8.6 8.5 8.5 8.0 8.0 7.7 7.3 7.2 6.8 6.4 6.6 7.3 7.0 7.2 7.0 7.1 7.0 6.8 6.4 5.8 6.1 5.5 5.4 4.8 5.1 4.6 5.0 5.3 5.2 5.3 5.4 5.2 5.0 4.8 5.2 4.9 5.5 5.3 5.1 5.5 6.0 6.5 6.1 6.1 6.2
6.9 7.6 7.9 9.0 8.2 8.2 8.4 8.0 7.4 7.6 7.6 7.5 7.1 6.9 6.6 6.9 6.9 6.7 7.0 7.1 7.1 7.3 7.0 6.0 6.0 6.0 5.8 6.2 5.9 5.8 4.7 5.0 4.6 5.4 5.3 5.1 4.8 5.3 5.0 5.3 5.6 5.8 5.6 5.7 6.7 6.2 6.1 6.1 6.3
7.3 7.8 8.0 8.7 8.5 8.5 8.1 7.5 7.3 7.7 7.4 7.3 7.0 6.8 6.8 7.2 7.0 6.5 6.6 6.9 7.0 7.0 6.5 5.8 5.8 5.9 5.8 5.8 5.6 5.1 4.9 4.7 4.8 5.1 4.8 4.9 4.7 5.0 5.0 5.4 5.9 6.0 5.9 6.7 6.7 6.2 6.2 6.2 6.0
7.2 7.8 7.9 8.2 8.7 8.4 7.9 7.6 7.5 7.3 6.9 7.2 7.3 7.3 6.3 6.2 6.4 6.5 6.7 6.4 6.3 6.7 6.3 5.9 5.7 5.7 5.4 5.7 5.2 5.1 4.8 4.2 4.3 3.7 4.3 4.3 4.7 4.7 5.4 5.7 6.1 6.1 6.4 6.7 6.3 6.1 6.2 6.0 5.7
6.9 7.4 7.9 8.4 8.6 8.0 8.0 8.0 7.4 7.4 6.9 7.4 7.4 7.0 5.6 5.5 5.9 6.2 6.3 6.1 6.0 5.4 5.5 5.7 5.7 5.6 5.4 5.4 5.4 4.5 4.6 4.1 4.4 4.1 4.4 4.7 4.9 5.3 5.9 6.1 6.4 6.6 6.5 6.2 6.1 6.1 6.0 5.8 5.7
6.9 7.2 7.6 8.2 8.4 8.4 8.1 7.8 7.4 7.3 7.1 6.9 7.1 7.0 6.3 5.4 5.9 6.5 6.4 5.8 5.2 5.5 5.4 5.2 5.1 5.1 5.1 5.3 5.2 4.7 4.9 4.2 4.4 4.3 4.9 5.1 5.5 5.8 6.3 6.2 6.5 6.6 6.4 6.3 6.2 6.0 6.0 5.7 5.7
6.8 7.3 7.8 8.3 8.9 8.7 8.4 8.4 7.6 7.3 7.5 6.6 7.1 6.6 6.6 6.1 6.2 6.1 6.3 6.3 5.8 5.0 5.0 5.0 5.1 5.1 4.9 5.0 4.9 4.9 5.2 4.8 5.2 4.5 4.9 5.5 5.9 6.3 6.2 6.3 6.5 6.3 6.2 6.1 6.2 6.1 5.9 5.9 5.9
6.9 7.4 8.0 8.5 9.0 8.5 8.2 7.9 8.1 7.3 7.2 6.6 6.8 6.9 6.7 7.2 7.0 6.7 7.0 7.2 7.0 6.9 6.5 5.9 5.6 5.3 5.4 5.4 5.3 5.1 5.0 5.1 4.9 4.8 5.6 6.0 6.0 6.2 5.9 6.2 6.1 6.3 6.2 6.2 6.0 5.9 5.9 5.9 5.9
7.3 7.6 8.7 8.6 8.3 8.1 8.1 7.6 8.1 8.1 7.3 7.3 6.8 6.7 6.5 7.0 6.8 6.7 7.2 7.4 7.5 7.4 7.2 7.0 6.9 6.2 5.4 5.0 5.1 4.8 5.5 5.2 5.3 5.4 5.9 5.9 5.8 5.9 5.9 6.2 6.4 6.5 6.1 6.0 6.1 6.1 6.0 5.9 5.9
7.2 7.7 8.6 9.1 8.6 8.4 8.4 8.0 8.2 8.1 7.2 6.9 6.6 6.5 6.6 6.4 6.8 6.7 6.9 6.9 7.3 7.3 7.1 6.8 6.8 6.5 6.3 6.4 6.1 5.7 5.8 5.9 6.0 6.1 6.2 6.1 6.1 6.3 6.4 6.1 6.5 6.5 6.2 6.2 6.2 6.2 6.1 5.8 5.7
7.1 7.6 8.6 9.0 8.7 8.8 8.9 8.8 8.3 8.0 7.9 7.4 6.9 6.7 6.8 6.8 7.1 7.0 7.0 7.1 7.0 7.1 7.0 6.8 6.6 6.3 6.4 6.2 6.1 6.0 6.2 6.0 5.5 5.5 6.2 6.4 6.5 6.4 6.6 6.4 6.5 6.4 6.4 6.3 6.2 6.0 5.9 5.7 5.9
7.6 7.7 8.4 8.9 8.9 8.8 8.9 8.0 8.3 8.3 8.0 7.5 7.3 7.1 7.2 7.5 7.6 7.2 7.1 7.1 7.0 7.1 7.1 7.0 6.8 6.6 6.6 6.5 6.3 6.3 6.3 5.8 5.9 6.1 6.3 6.3 6.4 6.5 6.5 6.5 6.6 6.4 6.2 6.3 6.5 6.5 6.4 6.1 6.0
7.7 8.0 8.2 8.9 9.3 9.0 9.2 8.5 8.1 8.1 8.1 7.7 7.7 7.6 7.2 7.9 7.7 7.4 7.4 7.3 7.3 7.2 7.2 7.3 7.2 7.2 7.0 6.9 6.9 6.8 6.9 6.7 6.6 6.5 6.4 6.4 6.5 6.5 6.5 6.6 6.6 6.8 6.7 6.5 6.5 6.4 6.3 5.8 5.7
8.1 8.4 8.2 8.3 8.7 8.7 8.9 9.0 9.1 8.2 7.8 7.6 7.8 8.2 7.8 8.1 8.0 7.9 7.9 7.7 7.5 7.2 7.3 7.4 7.3 7.3 7.2 7.1 7.0 6.9 7.0 6.7 6.6 6.4 6.4 6.2 6.7 6.8 6.8 6.7 6.6 6.8 6.9 6.8 6.7 6.1 6.2 5.9 5.7
8.3 8.3 8.9 8.7 8.8 7.8 8.7 8.9 8.8 8.3 8.5 8.2 7.7 8.1 8.1 8.0 7.9 7.8 7.8 7.8 7.7 7.4 7.2 7.2 7.2 7.2 7.0 6.8 6.9 7.1 7.1 7.1 7.1 6.9 7.1 7.0 6.7 6.6 6.4 6.7 6.8 6.6 6.5 6.5 6.4 5.9 5.9 5.9 5.8
8.2 8.3 8.2 7.7 7.4 6.4 8.6 8.7 8.7 9.0 9.2 9.0 8.8 8.0 8.3 8.1 8.0 8.0 8.0 7.9 7.7 7.8 7.5 7.2 7.3 7.4 7.3 7.1 7.0 7.0 7.0 6.9 7.1 6.8 7.1 7.3 7.0 6.6 6.2 6.4 6.7 6.9 6.8 6.7 6.6 6.0 5.9 5.9 5.9
8.3 8.4 7.9 7.4 6.3 7.6 8.5 8.3 8.7 8.4 9.0 9.1 8.7 8.8 8.4 8.0 8.1 7.8 8.0 8.1 7.9 7.7 7.8 7.7 7.6 7.7 7.6 7.5 7.6 7.1 7.1 7.2 7.1 6.8 6.8 6.6 6.2 6.4 6.4 6.5 6.7 6.8 6.8 6.6 6.3 6.3 6.2 5.8 5.4
8.4 8.4 8.6 9.0 8.3 7.6 7.9 8.3 8.5 8.8 8.6 9.1 8.9 8.8 8.6 8.5 7.8 7.7 7.5 7.5 7.9 8.0 7.7 7.9 7.9 8.0 7.7 7.6 7.5 7.6 7.4 7.0 7.2 7.3 6.7 6.2 6.2 6.3 6.2 6.3 6.9 6.9 7.0 6.6 6.4 6.3 6.1 5.8 5.5
8.9 8.5 8.7 8.8 7.2 7.0 7.4 8.2 8.6 8.8 8.9 9.2 9.1 8.6 8.5 8.3 8.1 8.0 7.6 7.8 7.5 7.6 7.6 8.0 8.3 8.4 8.3 7.6 7.4 7.6 7.7 7.5 7.3 7.0 6.3 6.3 6.5 6.5 6.5 6.5 6.7 6.8 7.1 6.7 6.5 6.3 6.1 6.0 5.8
8.7 8.5 8.7 8.5 8.2 6.8 6.4 7.8 8.6 8.8 8.5 9.1 9.1 8.8 8.6 8.5 8.3 8.0 8.0 7.7 7.5 7.3 7.0 7.4 7.8 7.6 7.6 7.6 7.5 7.3 7.3 7.2 7.3 6.7 6.2 5.8 6.4 6.7 6.9 6.8 7.1 7.2 6.9 6.8 6.6 6.4 6.2 6.0 5.9
8.6 8.6 8.7 8.3 7.7 8.4 8.2 7.6 8.7 8.8 8.9 8.9 8.9 8.6 8.6 8.6 8.5 8.5 8.3 8.0 7.8 7.7 7.5 7.2 7.3 7.4 7.2 7.9 7.5 7.2 6.9 6.9 5.7 6.4 6.0 5.5 6.9 7.1 7.1 7.1 7.2 7.0 7.0 6.8 6.6 6.4 6.1 6.2 5.8
Wind_Speed
7 10 1 3 3 3 7 10 7 11 5 4 3 5 9 6 5 2 4 7 11 18 5 20 21 21 25 28 28 28 28 27 27 28 28 29 28 28 29 30 28 28 27 26 24 23 22 20 20
5 5 1 3 2 2 8 14 12 4 3 9 9 4 7 4 6 4 4 5 10 1 17 24 25 23 27 29 28 29 28 27 27 28 28 28 28 28 29 29 28 26 26 25 22 21 18 17 16
3 4 2 3 3 8 6 7 7 7 7 5 6 8 6 5 7 5 3 10 6 3 23 24 35 20 22 28 28 28 27 28 29 26 26 27 28 28 29 28 27 26 24 24 22 18 17 16 17
2 4 4 0 11 18 5 3 8 9 8 14 11 7 3 5 4 4 2 8 16 2 5 23 32 27 24 26 28 28 28 28 28 28 27 26 26 28 28 28 26 26 24 23 21 16 16 16 16
1 2 2 5 11 11 4 3 4 23 13 20 4 5 5 4 8 6 1 9 3 6 15 7 23 32 28 29 25 23 28 29 28 28 28 27 26 26 26 27 26 25 23 22 19 16 15 17 17
2 3 4 8 10 5 4 5 3 19 22 19 11 9 6 6 7 10 8 7 5 2 11 23 28 32 31 32 28 20 24 29 28 28 27 26 24 24 26 26 25 23 21 20 18 16 16 16 16
6 2 6 11 18 4 4 7 12 16 17 2 2 3 0 9 7 8 8 7 5 9 10 8 22 30 31 33 31 23 24 28 30 28 27 25 25 23 24 24 24 22 20 20 19 17 14 13 14
4 3 8 7 5 0 3 3 10 10 4 10 4 1 3 2 4 8 7 7 3 9 12 11 8 24 21 25 27 25 26 30 29 31 29 26 25 23 23 22 21 21 20 19 18 16 13 12 13
2 2 6 16 4 5 5 4 4 6 9 4 4 3 9 5 8 9 9 11 9 5 12 18 13 18 20 26 25 23 24 27 27 28 31 23 20 19 18 21 21 20 21 19 17 14 11 10 11
5 4 9 6 2 5 6 6 10 4 5 4 4 4 11 8 7 10 7 9 9 8 10 10 16 19 22 22 18 16 17 16 17 21 23 19 21 17 17 18 19 19 17 16 13 10 7 7 9
8 6 9 7 3 4 4 7 6 6 4 1 7 6 8 11 10 10 8 6 5 5 8 9 12 18 16 14 16 13 17 14 14 20 20 17 17 18 14 15 16 16 14 12 10 8 4 7 8
5 8 6 5 3 1 3 6 6 9 1 4 8 9 8 11 9 10 8 8 10 10 9 10 11 12 17 15 10 9 10 13 7 18 18 15 14 13 13 12 15 14 13 12 9 6 8 9 12
4 5 7 7 9 4 15 10 9 9 6 7 5 6 11 10 10 9 9 9 10 12 10 11 10 13 15 15 16 9 6 6 10 16 19 17 13 10 13 14 16 15 12 11 9 11 9 8 8
6 7 6 9 10 4 7 5 5 4 8 7 9 9 8 11 11 10 10 9 9 11 11 11 13 13 18 12 13 8 5 3 14 5 13 14 16 11 9 9 11 14 15 12 16 12 9 8 11
14 7 7 11 8 4 9 6 4 4 9 8 8 7 8 9 11 11 10 10 12 9 11 12 13 17 12 13 14 9 7 7 2 12 12 14 13 11 13 12 9 13 17 13 11 8 8 8 7
7 7 5 10 9 1 8 3 6 7 9 6 11 10 11 13 11 11 13 12 11 12 14 12 12 12 11 11 11 8 9 5 9 14 10 15 16 16 13 8 7 13 10 13 11 7 4 4 4
5 8 8 8 5 5 4 2 5 12 12 9 11 12 10 12 11 11 13 13 13 13 15 16 14 14 14 14 14 13 14 12 17 16 13 17 14 17 13 9 10 13 13 10 7 2 3 3 3
8 4 4 1 5 3 4 4 8 9 18 17 15 14 13 14 17 16 14 12 12 13 13 15 13 15 14 12 13 12 11 12 18 16 13 18 17 16 15 10 9 16 7 4 3 3 2 3 4
13 12 6 4 6 7 12 8 12 10 5 18 14 15 15 16 17 15 16 16 14 13 14 16 15 14 11 10 10 9 9 9 4 9 15 19 18 17 15 9 11 13 6 6 6 4 4 2 2
16 10 7 6 1 4 11 11 10 8 6 11 15 16 17 15 18 18 16 16 15 17 16 17 16 17 12 11 10 7 5 3 4 8 13 18 17 10 15 10 7 8 4 5 6 5 2 2 3
15 7 5 3 5 10 4 3 5 9 10 8 11 13 16 22 19 19 19 18 18 18 18 19 18 16 15 14 9 6 3 4 4 4 5 11 18 18 14 14 13 9 6 5 5 6 7 4 1
9 6 9 5 1 4 5 3 10 14 14 14 12 14 13 20 20 19 21 19 20 19 17 18 18 16 15 17 14 14 12 9 8 5 5 7 17 16 17 17 16 13 9 6 5 5 4 5 3
11 7 1 2 3 2 6 0 4 15 12 15 14 18 14 21 22 22 23 23 21 20 19 18 18 18 18 17 17 13 14 9 9 6 11 12 9 17 19 16 13 8 8 6 8 5 6 5 3
9 4 3 3 1 4 6 2 6 12 19 17 19 19 18 18 22 23 23 23 22 20 19 19 21 21 20 19 20 18 15 11 9 7 9 8 8 8 14 14 13 10 9 8 7 7 9 6 7
6 2 1 3 2 6 4 3 7 8 9 8 22 20 21 20 22 22 23 21 22 23 24 20 22 22 22 21 21 21 15 14 14 11 8 10 5 3 7 8 8 7 11 12 12 6 7 8 8
10 7 5 4 2 4 3 3 6 8 8 9 17 22 16 16 18 23 25 24 23 25 25 24 23 22 22 22 22 20 17 11 11 8 5 4 7 7 5 7 10 11 12 10 12 5 5 6 6
10 6 8 4 3 2 3 6 8 10 12 8 11 9 10 11 12 17 23 23 24 24 26 25 25 23 21 18 16 18 18 15 10 12 9 10 10 6 7 7 7 7 9 9 8 6 7 7 5
9 3 2 0 4 4 4 4 4 9 10 6 7 13 14 15 15 13 15 23 22 24 24 24 24 25 25 22 16 14 17 15 12 10 6 5 6 12 12 7 6 6 5 8 8 7 7 7 4
4 7 3 4 5 4 3 5 7 10 5 6 9 7 8 9 11 10 9 8 17 22 22 22 19 10 11 8 14 14 14 18 15 10 7 6 5 10 10 8 7 8 8 8 8 7 8 7 6
9 13 10 5 5 4 3 10 5 7 5 4 6 8 8 8 8 7 8 5 5 9 18 14 20 24 22 18 13 11 3 10 4 3 11 13 11 9 10 8 8 9 9 10 9 9 8 7 6
Wind_Direction
319 290 171 359 42 71 268 264 248 328 88 251 224 87 124 109 68 162 268 185 200 104 76 145 127 130 122 119 121 121 119 118 116 113 111 111 111 111 109 107 106 105 103 101 101 99 98 95 90
308 295 133 270 138 297 281 252 245 186 172 140 64 29 74 93 64 108 311 312 258 344 156 165 135 140 133 127 125 122 121 118 115 113 113 114 114 113 112 110 108 107 105 104 101 98 90 79 74
284 224 67 167 203 233 237 265 304 359 4 12 97 25 14 48 29 132 238 359 137 271 172 158 139 140 131 126 124 123 123 121 117 113 115 117 118 117 114 114 113 109 108 105 101 91 81 69 56
268 352 323 197 256 262 265 338 15 353 359 28 102 54 1 349 329 275 74 56 91 96 153 142 137 140 133 123 122 126 123 118 115 114 116 118 120 119 118 117 115 112 110 106 99 87 78 70 60
99 302 237 268 274 282 249 291 37 40 31 22 43 157 131 48 326 17 75 94 60 130 102 100 132 140 132 120 119 122 122 119 115 116 117 119 122 121 120 118 116 113 113 108 102 91 76 69 59
328 135 313 282 286 274 339 352 51 58 46 359 10 5 26 70 357 346 46 82 123 142 183 164 165 136 127 121 121 119 119 115 112 111 110 112 116 117 117 116 114 113 111 108 100 90 76 64 59
200 87 254 288 295 19 301 354 57 80 72 327 233 261 318 42 345 18 81 64 93 91 127 162 151 127 126 127 127 127 120 113 109 105 105 104 106 110 112 114 115 115 113 108 103 99 87 70 57
193 144 303 295 301 183 271 32 98 87 102 162 220 71 33 349 35 60 71 128 127 101 90 55 58 96 107 118 109 114 116 112 111 109 105 103 104 109 112 111 115 115 115 112 113 114 103 86 65
258 7 283 281 40 329 85 118 18 115 142 155 138 134 138 189 98 76 75 94 120 91 106 117 91 85 105 113 106 102 107 109 111 113 113 107 109 110 115 120 121 122 125 127 129 127 114 98 71
157 158 245 260 66 23 342 76 126 122 136 93 114 165 160 145 105 104 91 110 125 123 96 106 120 126 128 126 107 100 98 108 121 119 108 117 109 115 112 119 124 131 135 134 129 126 112 69 48
251 213 257 288 119 44 73 66 61 118 39 35 149 174 128 128 115 111 110 100 93 88 91 109 112 108 105 114 123 118 120 127 123 112 124 123 119 111 121 125 133 137 143 129 130 122 109 84 104
247 255 282 276 109 104 33 74 89 67 116 120 138 159 140 109 118 123 121 119 111 107 109 108 107 108 115 111 94 124 110 112 121 113 126 124 114 131 138 147 147 153 159 148 140 152 136 114 91
226 250 287 316 320 127 79 64 109 106 106 123 139 137 124 126 117 113 114 106 110 102 105 107 103 113 113 111 114 87 67 130 106 118 132 137 130 155 167 156 164 174 172 163 152 148 134 115 99
297 294 319 302 283 125 88 93 92 123 152 146 118 121 130 121 125 128 120 113 104 123 117 111 106 106 112 114 116 104 180 139 77 228 146 146 164 172 151 171 187 175 190 179 166 157 163 147 129
312 322 305 276 242 100 114 60 115 152 155 136 128 120 126 130 142 142 137 130 123 111 115 114 119 114 113 126 135 162 172 144 143 255 164 187 188 197 187 176 193 184 183 178 173 170 146 143 140
298 306 274 285 122 224 115 213 141 161 142 159 154 150 156 161 161 150 155 147 146 136 137 132 136 136 142 148 169 162 157 175 211 217 205 202 199 185 174 172 181 181 175 155 144 153 139 149 157
260 249 259 263 196 138 96 199 221 145 134 188 178 162 167 157 148 169 156 154 153 150 151 151 153 160 160 171 174 172 178 179 199 209 232 210 205 194 177 188 204 177 152 152 158 157 149 166 162
259 232 274 297 101 134 103 197 254 156 165 196 186 178 177 169 168 165 163 159 157 157 156 156 162 165 166 168 175 178 183 203 200 221 208 207 204 191 187 192 192 161 155 157 152 156 171 164 170
260 280 278 219 196 166 188 188 215 234 177 199 187 179 174 161 164 160 163 168 162 165 162 171 172 174 178 182 181 186 205 216 206 199 208 192 201 196 195 187 182 170 159 179 179 155 175 142 131
262 270 269 317 201 191 167 209 216 247 254 188 178 183 171 156 154 159 162 163 172 173 176 177 183 191 186 190 196 202 203 200 199 210 201 204 203 192 194 183 181 179 157 178 183 155 139 165 167
271 258 286 252 190 267 220 14 231 253 261 270 179 171 154 163 165 167 166 172 177 180 182 184 189 187 190 188 192 207 218 214 201 206 206 205 201 211 203 185 174 189 173 180 181 168 162 172 194
267 259 247 251 243 224 171 258 217 224 220 222 176 176 166 171 172 173 171 178 181 186 185 190 193 193 192 191 196 205 212 210 211 188 195 200 206 201 200 193 187 184 186 169 178 171 141 117 157
257 249 323 301 315 316 308 295 233 209 207 205 191 185 188 177 177 178 182 180 187 185 190 195 195 195 197 201 204 209 210 210 198 186 192 200 199 201 183 200 183 179 185 174 159 130 115 112 136
255 204 240 294 331 335 267 215 295 183 197 208 199 178 192 182 183 184 186 184 184 187 192 196 198 200 201 202 208 213 208 204 202 194 192 196 195 190 191 185 186 175 144 142 143 143 173 153 165
258 202 246 338 329 229 335 347 229 236 174 178 175 176 193 188 182 185 186 188 191 187 192 196 201 204 202 205 209 214 210 195 197 197 180 178 165 197 188 189 169 164 163 163 162 149 145 167 161
242 184 156 220 214 267 12 249 270 331 191 184 172 183 190 177 191 186 188 190 193 196 193 194 201 205 204 206 212 214 208 206 206 180 161 169 179 206 197 176 168 163 162 146 144 144 161 161 154
239 210 187 175 39 64 250 281 301 276 231 205 202 181 212 203 202 199 190 190 197 196 199 196 195 202 207 204 209 212 210 209 190 170 161 185 184 164 169 182 158 137 134 145 146 154 164 156 148
186 189 237 348 156 225 219 242 234 266 232 210 152 186 217 224 215 203 186 193 199 201 201 200 200 201 206 206 203 203 204 203 180 173 181 149 144 156 167 171 144 141 151 151 156 163 160 153 152
210 219 195 162 150 197 207 249 192 218 244 196 182 159 149 150 161 181 193 198 209 204 203 202 198 152 214 234 224 217 202 196 187 167 150 115 150 168 154 166 164 154 164 163 168 166 160 154 153
198 203 200 146 200 191 180 253 199 184 263 252 229 179 168 150 156 148 152 175 169 186 213 193 187 186 196 209 226 211 129 92 3 98 128 162 171 168 157 168 167 170 167 166 166 167 166 168 171